| time (UTC) | temp F | wind direction | speed MPH | gust MPH | rain 1hr in | rain 24hr in | rain mn in | humidity % | barometer mb |
| 20260906024538 | 60 | 180 | 1.0 | 3.0 | 0.00 | 0.02 | 0.00 | 84 | 1018.0 |
| 20260906021541 | 61 | 180 | 1.0 | 3.0 | 0.00 | 0.02 | 0.00 | 82 | 1018.0 |
| 20260906020038 | 64 | 165 | 0.0 | 4.0 | 0.00 | 0.02 | 0.00 | 78 | 1017.8 |
| 20260906014535 | 66 | 157 | 0.0 | 0.0 | 0.00 | 0.02 | 0.00 | 75 | 1017.9 |
| 20260906013035 | 67 | 156 | 0.0 | 4.0 | 0.00 | 0.02 | 0.00 | 72 | 1017.9 |
| 20260906010036 | 68 | 152 | 1.0 | 4.0 | 0.00 | 0.02 | 0.00 | 70 | 1018.0 |
| 20260906003041 | 65 | 214 | 2.0 | 5.0 | 0.00 | 0.02 | 0.00 | 79 | 1018.4 |
| 20260906001535 | 62 | 168 | 4.0 | 6.0 | 0.00 | 0.02 | 0.00 | 82 | 1018.7 |
| 20260906000036 | 62 | 177 | 5.0 | 10.0 | 0.00 | 0.02 | 0.00 | 80 | 1018.7 |
| 20260905234538 | 62 | 195 | 5.0 | 8.0 | 0.00 | 0.02 | 0.00 | 78 | 1018.6 |
| 20260905233114 | 65 | 189 | 3.0 | 7.0 | 0.00 | 0.02 | 0.00 | 74 | 1018.3 |
| 20260905231539 | 66 | 293 | 1.0 | 7.0 | 0.00 | 0.02 | 0.00 | 73 | 1018.3 |
| 20260905230037 | 66 | 315 | 0.0 | 0.0 | 0.00 | 0.02 | 0.00 | 72 | 1018.3 |
| 20260905224539 | 66 | 315 | 0.0 | 0.0 | 0.00 | 0.02 | 0.00 | 71 | 1018.2 |
| 20260905223123 | 67 | 315 | 0.0 | 0.0 | 0.00 | 0.02 | 0.00 | 67 | 1018.1 |
| 20260905221533 | 69 | 315 | 0.0 | 3.0 | 0.00 | 0.02 | 0.00 | 59 | 1018.1 |
| 20260905220037 | 69 | 334 | 0.0 | 5.0 | 0.00 | 0.02 | 0.00 | 63 | 1018.2 |
| 20260905214536 | 67 | 202 | 0.0 | 0.0 | 0.00 | 0.02 | 0.00 | 66 | 1018.3 |
| 20260905213034 | 67 | 177 | 0.0 | 4.0 | 0.00 | 0.02 | 0.00 | 68 | 1018.5 |
| 20260905211533 | 67 | 201 | 0.0 | 0.0 | 0.00 | 0.02 | 0.00 | 68 | 1018.6 |
| 20260905210038 | 67 | 199 | 0.0 | 4.0 | 0.00 | 0.02 | 0.00 | 68 | 1018.7 |
| 20260905204533 | 67 | 189 | 1.0 | 4.0 | 0.00 | 0.02 | 0.00 | 67 | 1018.7 |
| 20260905203036 | 67 | 173 | 0.0 | 2.0 | 0.00 | 0.02 | 0.00 | 66 | 1018.7 |
| 20260905201536 | 67 | 331 | 1.0 | 5.0 | 0.00 | 0.02 | 0.00 | 66 | 1018.8 |
| 20260905194540 | 64 | 280 | 2.0 | 5.0 | 0.00 | 0.02 | 0.00 | 71 | 1019.1 |
| 20260905193040 | 64 | 310 | 0.0 | 4.0 | 0.00 | 0.02 | 0.00 | 72 | 1019.1 |
| 20260905190038 | 62 | 344 | 2.0 | 5.0 | 0.00 | 0.02 | 0.00 | 77 | 1019.6 |
| 20260905184540 | 61 | 326 | 1.0 | 5.0 | 0.00 | 0.02 | 0.00 | 80 | 1019.9 |
| 20260905183038 | 61 | 317 | 1.0 | 5.0 | 0.00 | 0.02 | 0.00 | 82 | 1020.0 |
| 20260905181537 | 60 | 276 | 2.0 | 4.0 | 0.00 | 0.02 | 0.00 | 89 | 1020.3 |
| 20260905174535 | 57 | 112 | 0.0 | 0.0 | 0.00 | 0.02 | 0.00 | 94 | 1020.5 |
| 20260905173038 | 56 | 112 | 0.0 | 0.0 | 0.00 | 0.02 | 0.00 | 95 | 1020.5 |
| 20260905170038 | 55 | 135 | 0.0 | 2.0 | 0.00 | 0.02 | 0.00 | 97 | 1020.5 |
| 20260905163036 | 54 | 135 | 0.0 | 2.0 | 0.00 | 0.02 | 0.00 | 97 | 1020.5 |
| 20260905161535 | 54 | 135 | 0.0 | 2.0 | 0.00 | 0.02 | 0.00 | 97 | 1020.4 |
| 20260905160035 | 53 | 135 | 0.0 | 3.0 | 0.00 | 0.02 | 0.00 | 97 | 1020.5 |
| 20260905154537 | 53 | 135 | 0.0 | 2.0 | 0.00 | 0.02 | 0.00 | 97 | 1020.5 |
| 20260905153037 | 52 | 135 | 0.0 | 0.0 | 0.00 | 0.02 | 0.00 | 97 | 1020.5 |
| 20260905151540 | 52 | 135 | 0.0 | 0.0 | 0.00 | 0.02 | 0.00 | 97 | 1020.5 |
| 20260905150037 | 52 | 135 | 0.0 | 0.0 | 0.00 | 0.02 | 0.00 | 97 | 1020.5 |
| 20260905144535 | 51 | 135 | 0.0 | 0.0 | 0.00 | 0.02 | 0.00 | 97 | 1020.3 |
| 20260905143036 | 51 | 135 | 0.0 | 0.0 | 0.00 | 0.02 | 0.00 | 97 | 1020.3 |
| 20260905141538 | 51 | 135 | 0.0 | 0.0 | 0.00 | 0.02 | 0.00 | 97 | 1020.2 |
| 20260905140036 | 50 | 115 | 0.0 | 2.0 | 0.00 | 0.02 | 0.00 | 97 | 1020.0 |
| 20260905134536 | 50 | 112 | 0.0 | 0.0 | 0.00 | 0.02 | 0.00 | 97 | 1019.8 |
| 20260905133038 | 50 | 112 | 0.0 | 0.0 | 0.00 | 0.02 | 0.00 | 97 | 1019.7 |
| 20260905131538 | 51 | 112 | 0.0 | 0.0 | 0.00 | 0.02 | 0.00 | 96 | 1019.6 |
| 20260905130036 | 51 | 112 | 0.0 | 0.0 | 0.00 | 0.03 | 0.00 | 96 | 1019.6 |
| 20260905124538 | 51 | 112 | 0.0 | 0.0 | 0.00 | 0.03 | 0.00 | 96 | 1019.7 |
| 20260905123039 | 51 | 112 | 0.0 | 0.0 | 0.00 | 0.03 | 0.00 | 96 | 1019.7 |
| 20260905121537 | 51 | 112 | 0.0 | 0.0 | 0.00 | 0.03 | 0.00 | 96 | 1019.7 |
| 20260905120038 | 51 | 112 | 0.0 | 0.0 | 0.00 | 0.03 | 0.00 | 96 | 1019.6 |
| 20260905113035 | 51 | 112 | 0.0 | 0.0 | 0.00 | 0.03 | 0.00 | 96 | 1019.5 |
| 20260905110050 | 51 | 112 | 0.0 | 0.0 | 0.00 | 0.03 | 0.00 | 96 | 1019.4 |
| 20260905103033 | 52 | 112 | 0.0 | 0.0 | 0.00 | 0.03 | 0.00 | 96 | 1019.3 |
| 20260905101537 | 52 | 112 | 0.0 | 0.0 | 0.00 | 0.04 | 0.00 | 96 | 1019.4 |
| 20260905100155 | 52 | 112 | 0.0 | 0.0 | 0.00 | 0.04 | 0.00 | 96 | 1019.4 |
| 20260905094536 | 52 | 112 | 0.0 | 0.0 | 0.00 | 0.04 | 0.00 | 96 | 1019.5 |
| 20260905093036 | 52 | 112 | 0.0 | 0.0 | 0.00 | 0.04 | 0.00 | 95 | 1019.4 |
| 20260905091536 | 52 | 112 | 0.0 | 0.0 | 0.00 | 0.04 | 0.00 | 95 | 1019.3 |
| 20260905084536 | 53 | 90 | 0.0 | 2.0 | 0.00 | 0.04 | 0.00 | 95 | 1019.2 |
| 20260905083035 | 53 | 90 | 0.0 | 0.0 | 0.00 | 0.04 | 0.00 | 95 | 1019.1 |
| 20260905081539 | 53 | 90 | 0.0 | 0.0 | 0.00 | 0.04 | 0.00 | 95 | 1019.1 |
| 20260905080037 | 53 | 90 | 0.0 | 0.0 | 0.00 | 0.04 | 0.00 | 95 | 1019.0 |
| 20260905073031 | 54 | 180 | 0.0 | 3.0 | 0.01 | 0.04 | 0.00 | 95 | 1018.8 |
| 20260905071532 | 54 | 156 | 1.0 | 3.0 | 0.01 | 0.04 | 0.00 | 94 | 1018.6 |
| 20260905070029 | 54 | 31 | 0.0 | 2.0 | 0.02 | 0.04 | 0.00 | 94 | 1018.5 |
| 20260905063030 | 54 | 93 | 1.0 | 4.0 | 0.01 | 0.03 | 0.03 | 94 | 1018.3 |
| 20260905061531 | 54 | 252 | 0.0 | 2.0 | 0.01 | 0.03 | 0.02 | 94 | 1018.2 |
| 20260905060032 | 54 | 247 | 0.0 | 0.0 | 0.00 | 0.02 | 0.02 | 94 | 1018.3 |
| 20260905054531 | 54 | 247 | 0.0 | 0.0 | 0.00 | 0.02 | 0.02 | 93 | 1018.2 |
| 20260905053030 | 54 | 226 | 0.0 | 0.0 | 0.00 | 0.02 | 0.02 | 93 | 1018.0 |
| 20260905051532 | 54 | 180 | 0.0 | 0.0 | 0.00 | 0.02 | 0.02 | 93 | 1018.2 |
| 20260905050029 | 53 | 180 | 0.0 | 3.0 | 0.00 | 0.02 | 0.02 | 93 | 1018.1 |
| 20260905044531 | 53 | 180 | 0.0 | 1.0 | 0.00 | 0.02 | 0.02 | 92 | 1018.0 |
| 20260905043045 | 53 | 180 | 0.0 | 1.0 | 0.00 | 0.02 | 0.02 | 92 | 1017.9 |
| 20260905041530 | 54 | 180 | 0.0 | 2.0 | 0.00 | 0.02 | 0.02 | 91 | 1017.9 |
| 20260905040030 | 54 | 180 | 0.0 | 2.0 | 0.00 | 0.02 | 0.02 | 91 | 1017.7 |
| 20260905034532 | 55 | 180 | 0.0 | 2.0 | 0.00 | 0.02 | 0.02 | 90 | 1017.6 |
| 20260905033107 | 55 | 180 | 0.0 | 2.0 | 0.00 | 0.02 | 0.02 | 89 | 1017.3 |
| 20260905031535 | 56 | 180 | 0.0 | 2.0 | 0.00 | 0.02 | 0.02 | 89 | 1017.2 |
| 20260905030105 | 56 | 180 | 0.0 | 0.0 | 0.00 | 0.02 | 0.02 | 88 | 1017.1 |